weather.gov     
National Weather Service

Terminal Aerodrome Forecast
NWS Homepage
This page is being discontinued on March 12, 2014.
The same data is available at this site. Please update your bookmarks.
Thank you, and we apologize for the inconvenience.
Please send an email to SR-SRH.Webmaster@noaa.gov with any concerns.


Current Version
Previous Version:    01  02  03  04  05  06  07  08  09  10  11  12  13  14  15  16  17  18  19  20  21  22  23  24  25  26  27  
[Printable]
806
FTUS45 KREV 252300
TAFTRK
TAF
KTRK 252323Z 2600/2624 VRB03KT P6SM FEW180
     FM261000 00000KT P6SM VCFG SCT002
      TEMPO 2611/2615 1/2SM FZFG OVC002
     FM261600 VRB03KT P6SM FEW180
     FM262000 22009KT P6SM SCT180
      AMD NOT SKED 2602/2612=


U.S. Dept. of Commerce
NOAA National Weather Service
1325 East West Highway
Silver Spring, MD 20910
E-mail: w-nws.webmaster@noaa.gov
Page last modified: May 16, 2007
NATIONAL WEATHER SERVICE: for Safety, for Work, for Fun - FOR LIFE